W3EX Weather Reports


Display with metric or nautical units.
time (UTC)temp
F
wind
direction
speed
MPH
gust
MPH
rain 1hr
in
rain 24hr
in
rain mn
in
humidity
%
barometer
mb
20260506134502 66 247 4.0 9.0 0.00 0.00 0.00 73 1005.0
20260506133104 65 240 1.0 9.0 0.00 0.00 0.00 75 1005.4
20260506131502 65 283 5.0 11.0 0.00 0.00 0.00 74 1005.4
20260506130143 66 262 3.0 10.0 0.00 0.00 0.00 73 1005.7
20260506124502 66 179 3.0 11.0 0.00 0.00 0.00 72 1005.6
20260506123103 65 227 3.0 10.0 0.00 0.00 0.00 73 1005.6
20260506121604 65 184 4.0 9.0 0.00 0.00 0.00 74 1005.4
20260506120002 65 184 5.0 10.0 0.00 0.00 0.00 74 1005.4
20260506114602 64 193 3.0 13.0 0.00 0.00 0.00 75 1005.3
20260506113002 64 211 7.0 12.0 0.00 0.00 0.00 75 1005.1
20260506111602 64 210 3.0 9.0 0.00 0.00 0.00 75 1005.4
20260506110006 64 232 5.0 10.0 0.00 0.00 0.00 75 1005.1
20260506104503 64 244 6.0 10.0 0.00 0.00 0.00 75 1005.1
20260506103102 64 167 5.0 12.0 0.00 0.00 0.00 75 1004.9
20260506101502 64 209 7.0 12.0 0.00 0.00 0.00 75 1004.9
20260506100104 65 183 5.0 11.0 0.00 0.00 0.00 74 1004.9
20260506094507 65 198 5.0 11.0 0.00 0.00 0.00 74 1005.0
20260506093106 65 244 5.0 10.0 0.00 0.00 0.00 73 1004.8
20260506091502 66 215 6.0 11.0 0.00 0.00 0.00 72 1004.9
20260506084507 66 235 6.0 11.0 0.00 0.00 0.00 70 1005.0
20260506083103 67 194 4.0 15.0 0.00 0.00 0.00 70 1005.1
20260506073106 66 175 4.0 10.0 0.00 0.00 0.00 69 1005.2
20260506071502 67 207 4.0 10.0 0.00 0.00 0.00 68 1005.3
20260506070104 67 182 5.0 11.0 0.00 0.00 0.00 67 1005.2
20260506061502 67 157 3.0 9.0 0.00 0.00 0.00 65 1005.7
20260506044603 67 186 1.0 9.0 0.00 0.00 0.00 62 1006.2
20260506043102 67 182 4.0 8.0 0.00 0.00 0.00 62 1006.3
20260506041502 68 198 3.0 8.0 0.00 0.00 0.00 62 1006.2
20260506034501 68 211 3.0 9.0 0.00 0.00 0.00 61 1006.2
20260506033113 68 194 5.0 9.0 0.00 0.00 0.00 60 1006.0
20260506031502 69 194 4.0 11.0 0.00 0.00 0.00 57 1006.0
20260506024502 71 180 4.0 9.0 0.00 0.00 0.00 53 1005.9
20260506023102 71 198 7.0 12.0 0.00 0.00 0.00 52 1006.0
20260506021502 72 180 4.0 12.0 0.00 0.00 0.00 51 1005.9
20260506020103 72 217 3.0 9.0 0.00 0.00 0.00 49 1006.0
20260506014504 73 172 6.0 10.0 0.00 0.00 0.00 48 1005.8
20260506013102 73 184 4.0 10.0 0.00 0.00 0.00 46 1005.7
20260506011502 74 209 4.0 12.0 0.00 0.00 0.00 46 1005.6
20260506010003 74 196 3.0 10.0 0.00 0.00 0.00 45 1005.4
20260506004604 74 180 4.0 13.0 0.00 0.00 0.00 46 1005.3
20260506003003 75 207 4.0 10.0 0.00 0.00 0.00 45 1005.1
20260506001619 76 233 4.0 9.0 0.00 0.00 0.00 40 1004.9
20260506000010 76 194 4.0 10.0 0.00 0.00 0.00 40 1004.9
20260505234604 77 178 4.0 11.0 0.00 0.00 0.00 40 1004.7
20260505233002 77 169 3.0 10.0 0.00 0.00 0.00 40 1004.6
20260505231603 78 206 2.0 11.0 0.00 0.00 0.00 39 1004.6
20260505230002 78 223 3.0 23.0 0.00 0.00 0.00 37 1004.6
20260505224603 79 213 4.0 12.0 0.00 0.00 0.00 37 1004.5
20260505223007 79 220 4.0 11.0 0.00 0.00 0.00 36 1004.5
20260505221602 80 228 6.0 15.0 0.00 0.00 0.00 35 1004.4
20260505220006 80 230 7.0 13.0 0.00 0.00 0.00 35 1004.3
20260505214609 80 261 3.0 10.0 0.00 0.00 0.00 35 1004.5
20260505213002 80 114 3.0 11.0 0.00 0.00 0.00 34 1004.3
20260505211624 81 188 6.0 14.0 0.00 0.00 0.00 33 1004.2
20260505210006 81 255 5.0 23.0 0.00 0.00 0.00 33 1004.3
20260505204602 80 355 6.0 20.0 0.00 0.00 0.00 32 1004.3
20260505203102 81 222 3.0 26.0 0.00 0.00 0.00 34 1004.4
20260505201502 82 297 5.0 13.0 0.00 0.00 0.00 33 1004.3
20260505194504 82 180 4.0 15.0 0.00 0.00 0.00 33 1004.7
20260505193102 81 247 6.0 17.0 0.00 0.00 0.00 31 1004.6
20260505191503 81 225 6.0 17.0 0.00 0.00 0.00 31 1004.8
20260505190119 81 243 4.0 19.0 0.00 0.00 0.00 31 1004.9
20260505184502 81 180 7.0 17.0 0.00 0.00 0.00 37 1005.0
20260505183102 81 210 7.0 18.0 0.00 0.00 0.00 33 1005.2
20260505181502 81 277 4.0 22.0 0.00 0.00 0.00 35 1005.4
20260505174504 81 240 5.0 18.0 0.00 0.00 0.00 36 1005.6
20260505173103 81 190 5.0 10.0 0.00 0.00 0.00 39 1005.7
20260505171506 80 44 2.0 15.0 0.00 0.00 0.00 40 1005.6
20260505170114 81 201 5.0 15.0 0.00 0.00 0.00 39 1005.9
20260505164502 80 195 6.0 11.0 0.00 0.00 0.00 40 1006.0
20260505163111 80 210 2.0 15.0 0.00 0.00 0.00 45 1006.1
20260505161502 79 190 4.0 11.0 0.00 0.00 0.00 41 1006.1
20260505160104 79 43 2.0 8.0 0.00 0.00 0.00 43 1006.3
20260505153111 78 232 2.0 10.0 0.00 0.00 0.00 44 1006.6
20260505151502 76 227 2.0 7.0 0.00 0.00 0.00 50 1006.6
20260505150116 75 33 1.0 6.0 0.00 0.00 0.00 46 1006.8